Els Cortals - Les Guilleries





Hora UTC 09:20
Temperatura 19.8 ºC
Humedad 60.0 %
Presión 1003.5 hPa
Pluja 0.0 mm
Velocidad viento 12.9 km/h
Dirección viento SW

Datos diarios 2021-06-21



Hora UTC (invierno +1h; verano +2h)
Temperatura (ºC) Humedad (%) Presión (hPa) Velocidad viento (km/h) Precipitación (mm)
Hora UTC Aire Humedad Presión Vel. Dir. Vel. Max Dir. Intent. máx 5 min.
00:05 16.4 71.0 1003.0 6.4 WSW 6.4 0.0
00:10 16.3 71.0 1002.9 8.0 WSW 12.9 0.0
00:15 16.2 71.0 1003.0 1.6 WSW 12.9 0.0
00:20 16.2 72.0 1003.0 3.2 SW 16.1 0.0
00:25 16.1 72.0 1003.0 3.2 WSW 16.1 0.0
00:30 16.1 72.0 1003.2 3.2 WSW 11.3 0.0
00:35 16.1 72.0 1003.2 1.6 SW 11.3 0.0
00:40 16.1 72.0 1003.2 4.8 SW 11.3 0.0
00:45 16.0 73.0 1003.2 3.2 WSW 9.7 0.0
00:50 16.0 73.0 1003.2 3.2 SW 12.9 0.0
00:55 16.0 73.0 1003.1 8.0 W 12.9 0.0
01:00 16.0 73.0 1003.2 1.6 W 12.9 0.0
01:05 16.0 74.0 1003.0 0.0 NW 12.9 0.0
01:10 15.9 74.0 1003.0 0.0 WSW 14.5 0.0
01:15 15.9 74.0 1002.9 6.4 SW 9.7 0.0
01:20 15.8 74.0 1002.9 0.0 WSW 9.7 0.0
01:25 15.7 75.0 1002.8 4.8 SW 9.7 0.0
01:30 15.7 75.0 1002.8 1.6 WSW 9.7 0.0
01:35 15.6 75.0 1002.7 0.0 WSW 9.7 0.0
01:40 15.6 75.0 1002.6 9.7 SW 9.7 0.0
01:45 15.6 76.0 1002.6 6.4 NNW 17.7 0.0
01:50 15.7 76.0 1002.6 0.0 S 17.7 0.0
01:55 15.8 75.0 1002.5 3.2 SW 22.5 0.0
02:00 15.9 75.0 1002.5 6.4 SW 14.5 0.0
02:05 15.9 75.0 1002.5 9.7 WSW 14.5 0.0
02:10 15.9 75.0 1002.7 1.6 SW 17.7 0.0
02:15 15.9 75.0 1002.5 12.9 W 22.5 0.0
02:20 15.9 75.0 1002.5 1.6 NNW 22.5 0.0
02:25 15.9 74.0 1002.5 1.6 SW 16.1 0.0
02:30 15.9 74.0 1002.4 9.7 SW 17.7 0.0
02:35 15.9 74.0 1002.5 6.4 WSW 25.7 0.0
02:40 15.9 74.0 1002.5 8.0 WSW 25.7 0.0
02:45 15.9 74.0 1002.4 11.3 SW 22.5 0.0
02:50 16.0 74.0 1002.4 6.4 WSW 22.5 0.0
02:55 16.0 74.0 1002.4 11.3 SW 20.9 0.0
03:00 15.9 73.0 1002.5 12.9 WSW 20.9 0.0
03:05 15.9 73.0 1002.5 9.7 WNW 17.7 0.0
03:10 15.9 73.0 1002.5 8.0 SSW 22.5 0.0
03:15 15.9 74.0 1002.4 1.6 WSW 22.5 0.0
03:20 15.8 73.0 1002.4 14.5 WSW 24.1 0.0
03:25 15.8 73.0 1002.4 8.0 WSW 38.6 0.0
03:30 15.8 73.0 1002.4 12.9 WNW 38.6 0.0
03:35 15.7 73.0 1002.4 12.9 SW 37.0 0.0
03:40 15.7 73.0 1002.4 6.4 WNW 37.0 0.0
03:45 15.7 73.0 1002.5 12.9 WSW 25.7 0.0
03:50 15.6 73.0 1002.4 14.5 WNW 30.6 0.0
03:55 15.5 73.0 1002.5 8.0 W 30.6 0.0
04:00 15.4 74.0 1002.4 12.9 W 29.0 0.0
04:05 15.4 73.0 1002.5 8.0 W 30.6 0.0
04:10 15.3 73.0 1002.6 9.7 WSW 30.6 0.0
04:15 15.3 74.0 1002.5 16.1 SW 24.1 0.0
04:20 15.2 74.0 1002.5 12.9 SW 30.6 0.0
04:25 15.2 74.0 1002.7 11.3 WSW 29.0 0.0
04:30 15.1 74.0 1002.7 9.7 SW 29.0 0.0
04:35 15.0 74.0 1002.6 1.6 W 24.1 0.0
04:40 15.0 74.0 1002.8 12.9 WNW 25.7 0.0
04:45 15.0 74.0 1002.9 8.0 WNW 22.5 0.0
04:50 15.0 74.0 1002.8 9.7 SW 29.0 0.0
04:55 15.1 73.0 1002.8 11.3 W 25.7 0.0
05:00 15.2 72.0 1002.8 8.0 W 30.6 0.0
05:05 15.2 73.0 1002.8 6.4 WNW 30.6 0.0
05:10 15.2 72.0 1002.8 6.4 W 22.5 0.0
05:15 15.3 71.0 1002.9 8.0 WSW 29.0 0.0
05:20 15.4 71.0 1002.9 8.0 WSW 29.0 0.0
05:25 15.4 71.0 1003.0 11.3 W 25.7 0.0
05:30 15.5 71.0 1003.1 16.1 WSW 25.7 0.0
05:35 15.6 72.0 1003.0 14.5 SW 22.5 0.0
05:40 15.6 72.0 1003.0 9.7 WNW 22.5 0.0
05:45 15.6 72.0 1003.0 9.7 SSW 22.5 0.0
05:50 15.7 72.0 1003.0 11.3 WSW 30.6 0.0
05:55 15.8 72.0 1003.0 9.7 SW 30.6 0.0
06:00 15.9 72.0 1003.0 4.8 SSW 25.7 0.0
06:05 16.0 72.0 1003.0 16.1 SW 22.5 0.0
06:10 16.1 72.0 1003.0 6.4 WNW 24.1 0.0
06:15 16.2 71.0 1003.0 22.5 WSW 24.1 0.0
06:20 16.3 71.0 1003.3 16.1 WSW 25.7 0.0
06:25 16.4 70.0 1003.3 14.5 W 29.0 0.0
06:30 16.6 71.0 1003.3 9.7 W 29.0 0.0
06:35 16.7 71.0 1003.3 1.6 W 29.0 0.0
06:40 16.8 70.0 1003.4 22.5 WSW 30.6 0.0
06:45 16.8 70.0 1003.3 8.0 WNW 30.6 0.0
06:50 16.9 70.0 1003.4 11.3 WSW 30.6 0.0
06:55 16.9 70.0 1003.6 6.4 WSW 32.2 0.0
07:00 17.1 70.0 1003.5 12.9 SW 32.2 0.0
07:05 17.2 70.0 1003.5 6.4 WSW 29.0 0.0
07:10 17.4 69.0 1003.6 9.7 SW 24.1 0.0
07:15 17.5 69.0 1003.5 9.7 SW 24.1 0.0
07:20 17.7 68.0 1003.6 16.1 W 22.5 0.0
07:25 17.8 67.0 1003.7 9.7 W 25.7 0.0
07:30 18.0 66.0 1003.6 9.7 SSW 25.7 0.0
07:35 18.2 66.0 1003.6 9.7 SW 25.7 0.0
07:40 18.3 66.0 1003.7 12.9 SW 25.7 0.0
07:45 18.6 65.0 1003.8 14.5 WSW 24.1 0.0
07:50 18.7 63.0 1003.8 9.7 WSW 29.0 0.0
07:55 18.8 62.0 1003.8 12.9 SSW 25.7 0.0
08:00 19.0 61.0 1003.7 17.7 SW 22.5 0.0
08:05 19.1 62.0 1003.7 9.7 W 24.1 0.0
08:10 19.3 62.0 1003.6 11.3 SW 24.1 0.0
08:15 19.4 61.0 1003.6 8.0 WSW 19.3 0.0
08:20 19.3 61.0 1003.7 12.9 SW 24.1 0.0
08:25 19.2 61.0 1003.6 12.9 WNW 24.1 0.0
08:30 19.2 60.0 1003.7 6.4 SSW 22.5 0.0
08:35 19.2 62.0 1003.6 11.3 SW 20.9 0.0
08:40 19.2 61.0 1003.6 6.4 S 29.0 0.0
08:45 19.4 60.0 1003.7 16.1 SW 29.0 0.0
08:50 19.5 59.0 1003.6 9.7 WSW 25.7 0.0
08:55 19.7 59.0 1003.6 17.7 SSW 24.1 0.0
09:00 19.8 58.0 1003.7 12.9 WSW 25.7 0.0
09:05 19.6 59.0 1003.6 9.7 SW 22.5 0.0
09:10 19.7 58.0 1003.6 12.9 W 22.5 0.0
09:15 19.5 59.0 1003.7 6.4 W 22.5 0.0
09:20 19.8 60.0 1003.5 12.9 SW 22.5 0.0
Máxima 19.8 76.0 1003.8 22.5 WSW 38.6 0.0
Mínima 15.0 58.0 1002.4
Total 0.0